Terug naar catalogus

FENGYUN 1C DEB

ActiefSSO
NORAD 30571·DEBRIS·🇨🇳 China

Gelanceerd May 10, 1999 vanaf Taiyuan Satellite Launch Center

Loading…

Volgende Passages (komende 24 uur)

TLE

VersSource: Space-Track

Epoch: Sep 13, 2026, 08:35 UTC

1 30571U 99025ALM 26256.35768314  .00000296  00000-0  18810-3 0  9997
2 30571  98.7092 279.4698 0021620 173.4144 201.0885 14.10922532  7531

Volg FENGYUN 1C DEB in realtime met AllMySat

Download on the App Store